User: anonymous   Login
Location: Newark
(7.0858°N, 171.3717°E)
Time: 18:54:58
(UTC+00:00)
Language:

STARLINK-3090 - Orbit

View from above orbital plane
View from above orbital plane
View from above satellite
View from above satellite

Ground track
Ground track

The orbit data is extracted from the following two-line orbital elements,

1 49132C 21082C   21340.49810440 -.00656228  00000-0 -21850-1 0  3400
2 49132  70.0000 254.6993 0003406 281.3733 133.6098 15.31661470    11
Epoch (UTC): 06 December 2021 11:57:16
Eccentricity: 0.0003406
inclination: 70.0000°
perigee height: 468 km
apogee height: 473 km
right ascension of ascending node: 254.6993°
argument of perigee: 281.3733°
revolutions per day: 15.31661470
mean anomaly at epoch: 133.6098°
orbit number at epoch: 1

The dashed part of the orbit path shows where the satellite is in the earth's shadow,  

DLR